Date String (YYYY-MM-DD hh:mm:ss) UTC,Instrument flags,absolute air pressure of the measurement (hPa),sample flow rate (lpm),inlet stack bypass flow (lpm),air temperature of the measurement (°C),ambient temperature measured by the external sensor (°C),aerosol sample conditioner tube jacket temperature (°C),OPC LED temperature (°C),internal box temperature (°C),relative humidity of the measurement (%),span deviation,mass concentration of particles derived from Lorenz-Mie calculation of OPC scattering (μg/m³),mass concentration of particles derived from Lorenz-Mie calculation of OPC scattering (μg/m³),mass concentration of particles derived from Lorenz-Mie calculation of OPC scattering (μg/m³)
DateTimeUTC,F1_M11,P_M11,Q1_M11,Q2_M11,T1_M11,T2_M11,T3_M11,T4_M11,T5_M11,U1_M11,ZSPAN_M11,X2_M11,X0_M11,X1_M11
2024-04-24 22:00:00,SystemResetWarning,0825.3,4.99,000.00,024.5,022.8,000.0,033.0,026.1,025.9,0003.0,0013.18,0030.36,0011.26
2024-04-24 22:01:00,SystemResetWarning,0825.3,5.00,000.00,024.6,023.2,000.0,033.0,026.4,025.6,0002.9,0013.12,0030.40,0011.25
2024-04-24 22:02:00,SystemResetWarning,0825.3,5.00,000.00,024.7,023.5,000.0,033.0,026.5,025.8,0002.9,0013.09,0031.49,0011.23
2024-04-24 22:03:00,SystemResetWarning,0825.3,5.01,000.00,024.8,023.8,000.0,033.0,026.7,025.6,0002.9,0013.06,0031.70,0011.21
2024-04-24 22:04:00,SystemResetWarning,0825.3,5.01,000.00,024.9,024.1,000.0,033.0,026.8,025.7,0003.2,0012.97,0032.36,0011.19
2024-04-24 22:05:00,SystemResetWarning,0825.3,5.00,000.00,025.0,024.3,000.0,033.1,026.9,025.8,0003.2,0012.96,0031.61,0011.17
2024-04-24 22:06:00,SystemResetWarning,0825.2,5.00,000.00,025.0,024.5,000.0,033.1,027.0,025.6,0003.1,0012.99,0030.90,0011.18
2024-04-24 22:07:00,SystemResetWarning,0825.2,5.00,000.00,025.1,024.7,000.0,033.1,027.1,025.9,0002.9,0012.92,0031.45,0011.15
2024-04-24 22:08:00,SystemResetWarning,0825.2,5.00,000.00,025.2,024.8,000.0,033.2,027.2,025.3,0002.7,0012.83,0031.33,0011.09
2024-04-24 22:09:00,SystemResetWarning,0825.2,5.00,000.00,025.3,024.9,000.0,033.2,027.3,025.6,0002.7,0012.73,0030.16,0011.01
2024-04-24 22:10:00,SystemResetWarning,0825.2,4.97,000.00,025.2,023.6,000.0,033.3,026.4,025.5,0002.6,0012.63,0029.21,0010.96
2024-04-24 22:11:00,SystemResetWarning,0825.1,5.01,000.00,024.8,021.8,000.0,033.3,025.3,025.5,0002.8,0012.58,0028.99,0010.91
2024-04-24 22:12:00,SystemResetWarning,0825.1,5.01,000.00,024.5,021.6,000.0,033.3,025.1,026.2,0003.0,0012.56,0027.91,0010.89
2024-04-24 22:13:00,SystemResetWarning,0825.1,5.00,000.00,024.4,022.1,000.0,033.2,025.4,025.8,0003.2,0012.55,0026.89,0010.90
2024-04-24 22:14:00,SystemResetWarning,0825.1,4.99,000.00,024.4,022.5,000.0,033.1,025.8,025.8,0003.4,0012.55,0026.60,0010.93
2024-04-24 22:15:00,SystemResetWarning,0825.2,4.98,000.00,024.5,022.9,000.0,033.0,026.1,025.2,0003.2,0012.53,0024.80,0010.95
2024-04-24 22:16:00,SystemResetWarning,0825.2,5.02,000.00,024.6,023.3,000.0,033.0,026.4,025.5,0003.1,0012.56,0024.74,0010.99
2024-04-24 22:17:00,SystemResetWarning,0825.2,5.00,000.00,024.7,023.6,000.0,033.0,026.5,025.4,0003.3,0012.55,0025.60,0011.01
2024-04-24 22:18:00,SystemResetWarning,0825.2,4.98,000.00,024.8,023.9,000.0,033.0,026.7,025.2,0003.5,0012.59,0024.79,0011.03
2024-04-24 22:19:00,SystemResetWarning,0825.1,5.00,000.00,024.9,024.2,000.0,033.0,026.8,025.6,0003.6,0012.70,0024.18,0011.09
2024-04-24 22:20:00,SystemResetWarning,0825.1,5.01,000.00,025.0,024.4,000.0,033.1,026.9,025.8,0003.5,0012.82,0024.66,0011.16
2024-04-24 22:21:00,SystemResetWarning,0825.1,5.00,000.00,025.1,024.6,000.0,033.1,027.1,025.4,0003.5,0012.86,0025.07,0011.18
2024-04-24 22:22:00,SystemResetWarning,0825.1,5.00,000.00,025.2,024.8,000.0,033.2,027.2,024.9,0003.2,0012.93,0027.98,0011.24
2024-04-24 22:23:00,SystemResetWarning,0825.1,4.99,000.00,025.3,024.9,000.0,033.2,027.3,024.8,0003.1,0012.98,0029.69,0011.26
2024-04-24 22:24:00,SystemResetWarning,0825.1,4.99,000.00,025.3,024.4,000.0,033.3,026.9,024.5,0002.9,0012.95,0031.21,0011.24
2024-04-24 22:25:00,SystemResetWarning,0825.0,5.00,000.00,024.9,022.3,000.0,033.3,025.7,025.4,0003.1,0012.89,0032.25,0011.22
2024-04-24 22:26:00,SystemResetWarning,0824.9,5.01,000.00,024.5,021.5,000.0,033.3,025.1,025.9,0003.1,0012.91,0033.47,0011.23
2024-04-24 22:27:00,SystemResetWarning,0825.0,5.00,000.00,024.4,021.9,000.0,033.2,025.3,025.9,0003.1,0012.89,0034.03,0011.23
2024-04-24 22:28:00,SystemResetWarning,0825.0,5.00,000.00,024.4,022.3,000.0,033.1,025.6,025.6,0003.2,0012.87,0033.85,0011.24
2024-04-24 22:29:00,SystemResetWarning,0825.0,4.99,000.00,024.4,022.7,000.0,033.0,026.0,025.0,0003.3,0012.90,0036.16,0011.27
2024-04-24 22:30:00,SystemResetWarning,0825.0,5.00,000.00,024.5,023.1,000.0,033.0,026.2,025.1,0003.4,0012.95,0037.88,0011.33
2024-04-24 22:31:00,SystemResetWarning,0825.0,5.00,000.00,024.6,023.5,000.0,033.0,026.4,025.2,0003.4,0012.92,0038.14,0011.33
2024-04-24 22:32:00,SystemResetWarning,0825.1,5.00,000.00,024.7,023.8,000.0,033.0,026.6,024.9,0003.2,0012.97,0039.52,0011.35
2024-04-24 22:33:00,SystemResetWarning,0825.0,5.01,000.00,024.8,024.1,000.0,033.0,026.7,025.3,0003.5,0012.96,0037.33,0011.36
2024-04-24 22:34:00,SystemResetWarning,0825.0,4.99,000.00,024.9,024.3,000.0,033.0,026.8,025.4,0003.6,0012.92,0035.28,0011.35
2024-04-24 22:35:00,SystemResetWarning,0825.0,4.99,000.00,025.0,024.5,000.0,033.1,027.0,025.2,0003.6,0012.95,0035.68,0011.36
2024-04-24 22:36:00,SystemResetWarning,0825.1,4.99,000.00,025.1,024.7,000.0,033.1,027.1,024.9,0003.5,0013.10,0035.63,0011.37
2024-04-24 22:37:00,SystemResetWarning,0825.0,5.00,000.00,025.2,024.9,000.0,033.1,027.2,025.1,0003.7,0013.18,0036.27,0011.38
2024-04-24 22:38:00,SystemResetWarning,0825.0,5.02,000.00,025.3,025.0,000.0,033.2,027.3,024.6,0003.8,0013.16,0037.52,0011.34
2024-04-24 22:39:00,SystemResetWarning,0825.0,4.99,000.00,025.3,024.3,000.0,033.3,026.8,024.8,0003.6,0013.20,0037.41,0011.33
2024-04-24 22:40:00,SystemResetWarning,0824.9,4.99,000.00,024.9,022.2,000.0,033.3,025.6,025.1,0003.5,0013.17,0036.33,0011.29
2024-04-24 22:41:00,SystemResetWarning,0824.9,5.01,000.00,024.5,021.4,000.0,033.3,025.1,025.7,0003.3,0013.16,0034.71,0011.26
2024-04-24 22:42:00,SystemResetWarning,0824.9,5.00,000.00,024.4,021.8,000.0,033.2,025.2,026.0,0003.3,0013.15,0035.32,0011.26
2024-04-24 22:43:00,SystemResetWarning,0824.9,5.00,000.00,024.4,022.2,000.0,033.0,025.6,025.3,0003.5,0013.13,0034.70,0011.25
2024-04-24 22:44:00,SystemResetWarning,0824.9,4.99,000.00,024.4,022.6,000.0,033.0,025.9,025.7,0003.4,0013.14,0034.76,0011.28
2024-04-24 22:45:00,SystemResetWarning,0824.9,5.01,000.00,024.5,023.0,000.0,032.9,026.2,025.5,0003.4,0013.20,0035.74,0011.30
2024-04-24 22:46:00,SystemResetWarning,0824.9,5.00,000.00,024.6,023.4,000.0,032.9,026.4,025.7,0003.5,0013.18,0034.88,0011.29
2024-04-24 22:47:00,SystemResetWarning,0825.0,5.00,000.00,024.7,023.7,000.0,032.9,026.6,024.9,0003.5,0013.14,0034.10,0011.27
2024-04-24 22:48:00,SystemResetWarning,0824.9,5.00,000.00,024.8,024.0,000.0,033.0,026.7,024.7,0003.1,0013.07,0032.21,0011.24
2024-04-24 22:49:00,SystemResetWarning,0824.9,5.00,000.00,024.9,024.2,000.0,033.0,026.8,023.8,0003.0,0013.10,0030.20,0011.28
2024-04-24 22:50:00,SystemResetWarning,0824.9,5.00,000.00,025.0,024.4,000.0,033.0,026.9,023.3,0003.1,0013.13,0029.98,0011.30
2024-04-24 22:51:00,SystemResetWarning,0825.0,5.00,000.00,025.0,024.6,000.0,033.0,027.1,023.3,0003.2,0013.20,0030.00,0011.36
2024-04-24 22:52:00,SystemResetWarning,0825.0,5.00,000.00,025.1,024.7,000.0,033.1,027.2,023.4,0003.3,0013.26,0030.47,0011.41
2024-04-24 22:53:00,SystemResetWarning,0825.0,5.00,000.00,025.2,024.9,000.0,033.1,027.3,024.0,0003.3,0013.30,0030.23,0011.40
2024-04-24 22:54:00,SystemResetWarning,0825.0,4.99,000.00,025.3,025.0,000.0,033.2,027.3,024.2,0003.3,0013.30,0029.46,0011.41
2024-04-24 22:55:00,SystemResetWarning,0825.0,4.99,000.00,025.3,024.3,000.0,033.3,026.8,023.4,0003.4,0013.28,0030.36,0011.35
2024-04-24 22:56:00,SystemResetWarning,0824.9,5.01,000.00,024.9,022.2,000.0,033.3,025.7,023.3,0003.4,0013.23,0030.44,0011.35
2024-04-24 22:57:00,SystemResetWarning,0824.9,5.01,000.00,024.6,021.5,000.0,033.3,025.2,023.7,0003.3,0013.29,0030.47,0011.42
2024-04-24 22:58:00,SystemResetWarning,0824.9,5.01,000.00,024.4,021.9,000.0,033.2,025.3,023.6,0003.2,0013.31,0031.05,0011.48
2024-04-24 22:59:00,SystemResetWarning,0824.9,4.99,000.00,024.4,022.3,000.0,033.1,025.6,024.0,0003.2,0013.35,0031.66,0011.51
